| time (UTC) | temp F | wind direction | speed knots | gust knots | rain 1hr in | rain 24hr in | rain mn in | humidity % | barometer mb |
| 20260504081557 | 50 | 181 | 3.5 | 9.6 | 0.00 | 0.00 | 0.00 | 72 | 1004.0 |
| 20260504050106 | 53 | 158 | 5.2 | 12.2 | 0.00 | 0.00 | 0.00 | 65 | 1006.2 |
| 20260504044602 | 53 | 148 | 3.5 | 14.8 | 0.00 | 0.00 | 0.00 | 63 | 1006.3 |
| 20260504043059 | 53 | 203 | 1.7 | 11.3 | 0.00 | 0.00 | 0.00 | 63 | 1006.3 |
| 20260504041602 | 53 | 124 | 3.5 | 9.6 | 0.00 | 0.00 | 0.00 | 62 | 1006.5 |
| 20260504034559 | 54 | 148 | 3.5 | 11.3 | 0.00 | 0.00 | 0.00 | 60 | 1006.8 |
| 20260504033058 | 55 | 132 | 5.2 | 14.8 | 0.00 | 0.00 | 0.00 | 59 | 1006.7 |
| 20260504031559 | 55 | 182 | 5.2 | 12.2 | 0.00 | 0.00 | 0.00 | 57 | 1006.9 |
| 20260504030059 | 56 | 176 | 3.5 | 13.0 | 0.00 | 0.00 | 0.00 | 56 | 1006.9 |
| 20260504024616 | 56 | 195 | 1.7 | 8.7 | 0.00 | 0.00 | 0.00 | 56 | 1007.1 |
| 20260504023059 | 57 | 236 | 1.7 | 8.7 | 0.00 | 0.00 | 0.00 | 54 | 1007.2 |
| 20260504021559 | 57 | 160 | 1.7 | 7.0 | 0.00 | 0.00 | 0.00 | 53 | 1007.2 |
| 20260504020059 | 57 | 200 | 0.9 | 7.8 | 0.00 | 0.00 | 0.00 | 52 | 1007.1 |
| 20260504014606 | 57 | 156 | 0.9 | 5.2 | 0.00 | 0.00 | 0.00 | 52 | 1007.0 |
| 20260504013100 | 58 | 109 | 1.7 | 7.8 | 0.00 | 0.00 | 0.00 | 50 | 1006.9 |
| 20260504011559 | 58 | 155 | 1.7 | 6.1 | 0.00 | 0.00 | 0.00 | 50 | 1006.8 |
| 20260504010108 | 58 | 144 | 0.9 | 6.1 | 0.00 | 0.00 | 0.00 | 49 | 1006.7 |
| 20260504004600 | 58 | 165 | 0.9 | 5.2 | 0.00 | 0.00 | 0.00 | 49 | 1006.6 |
| 20260504003100 | 59 | 176 | 0.9 | 6.1 | 0.00 | 0.00 | 0.00 | 48 | 1006.4 |
| 20260504001559 | 59 | 182 | 1.7 | 7.0 | 0.00 | 0.00 | 0.00 | 46 | 1006.3 |
| 20260504000139 | 59 | 161 | 1.7 | 7.0 | 0.00 | 0.00 | 0.00 | 46 | 1006.3 |
| 20260503234602 | 60 | 153 | 1.7 | 7.0 | 0.00 | 0.00 | 0.00 | 45 | 1006.3 |
| 20260503233100 | 60 | 231 | 0.0 | 5.2 | 0.00 | 0.00 | 0.00 | 46 | 1006.5 |
| 20260503231600 | 60 | 221 | 0.0 | 11.3 | 0.00 | 0.00 | 0.00 | 45 | 1006.6 |
| 20260503224600 | 60 | 145 | 0.0 | 7.8 | 0.00 | 0.00 | 0.00 | 45 | 1006.9 |
| 20260503223100 | 60 | 169 | 0.9 | 5.2 | 0.00 | 0.00 | 0.00 | 45 | 1007.0 |
| 20260503223001 | 60 | 169 | 0.9 | 5.2 | 0.00 | 0.00 | 0.00 | 46 | 1007.0 |
| 20260503221601 | 60 | 162 | 1.7 | 7.8 | 0.00 | 0.00 | 0.00 | 46 | 1007.0 |
| 20260503220100 | 60 | 235 | 0.9 | 5.2 | 0.00 | 0.00 | 0.00 | 48 | 1007.2 |
| 20260503214604 | 60 | 243 | 1.7 | 4.3 | 0.00 | 0.00 | 0.00 | 46 | 1007.2 |
| 20260503213111 | 59 | 223 | 0.9 | 5.2 | 0.00 | 0.00 | 0.00 | 48 | 1007.2 |
| 20260503211620 | 59 | 219 | 1.7 | 4.3 | 0.00 | 0.00 | 0.00 | 49 | 1007.3 |
| 20260503204600 | 60 | 289 | 1.7 | 6.1 | 0.00 | 0.00 | 0.00 | 46 | 1007.3 |
| 20260503203114 | 60 | 202 | 2.6 | 6.1 | 0.00 | 0.00 | 0.00 | 46 | 1007.5 |
| 20260503201600 | 59 | 216 | 1.7 | 6.1 | 0.00 | 0.00 | 0.00 | 50 | 1007.7 |
| 20260503200101 | 57 | 144 | 0.9 | 5.2 | 0.00 | 0.00 | 0.00 | 52 | 1007.9 |
| 20260503194601 | 55 | 171 | 0.9 | 2.6 | 0.00 | 0.00 | 0.00 | 57 | 1008.3 |
| 20260503193004 | 53 | 263 | 0.9 | 3.5 | 0.00 | 0.00 | 0.00 | 64 | 1009.0 |
| 20260503191502 | 54 | 240 | 0.9 | 3.5 | 0.00 | 0.00 | 0.00 | 61 | 1009.2 |
| 20260503190001 | 55 | 240 | 2.6 | 5.2 | 0.00 | 0.00 | 0.00 | 59 | 1009.4 |
| 20260503184501 | 58 | 223 | 1.7 | 5.2 | 0.00 | 0.00 | 0.00 | 51 | 1009.3 |
| 20260503183000 | 58 | 271 | 1.7 | 4.3 | 0.00 | 0.00 | 0.00 | 50 | 1009.3 |
| 20260503181502 | 55 | 248 | 0.9 | 3.5 | 0.00 | 0.00 | 0.00 | 57 | 1009.3 |
| 20260503180000 | 56 | 248 | 0.9 | 5.2 | 0.00 | 0.00 | 0.00 | 55 | 1009.6 |
| 20260503174502 | 57 | 275 | 1.7 | 4.3 | 0.00 | 0.00 | 0.00 | 54 | 1009.7 |
| 20260503173001 | 58 | 255 | 1.7 | 6.1 | 0.00 | 0.00 | 0.00 | 53 | 1009.7 |
| 20260503171502 | 59 | 251 | 3.5 | 6.1 | 0.00 | 0.00 | 0.00 | 47 | 1009.8 |